utcTime,localTime,pm25,nowcast
2022-09-09 15:00:00 +0000,2022-09-09 10:00:00 -0500,2.3,NA
2022-09-09 16:00:00 +0000,2022-09-09 11:00:00 -0500,9,6.7
2022-09-09 17:00:00 +0000,2022-09-09 12:00:00 -0500,10,8.6
2022-09-09 18:00:00 +0000,2022-09-09 13:00:00 -0500,6.6,7.5
2022-09-09 19:00:00 +0000,2022-09-09 14:00:00 -0500,10,8.8
2022-09-09 20:00:00 +0000,2022-09-09 15:00:00 -0500,14.8,11.8
2022-09-09 21:00:00 +0000,2022-09-09 16:00:00 -0500,8.7,10.2
2022-09-09 22:00:00 +0000,2022-09-09 17:00:00 -0500,6.8,8.5
2022-09-09 23:00:00 +0000,2022-09-09 18:00:00 -0500,10.3,9.4
2022-09-10 00:00:00 +0000,2022-09-09 19:00:00 -0500,12.9,11.1
2022-09-10 01:00:00 +0000,2022-09-09 20:00:00 -0500,6.3,8.7
2022-09-10 02:00:00 +0000,2022-09-09 21:00:00 -0500,11.1,9.9
2022-09-10 03:00:00 +0000,2022-09-09 22:00:00 -0500,7.8,8.8
2022-09-10 04:00:00 +0000,2022-09-09 23:00:00 -0500,8.5,8.6
2022-09-10 05:00:00 +0000,2022-09-10 00:00:00 -0500,13.6,11.1
2022-09-10 06:00:00 +0000,2022-09-10 01:00:00 -0500,8.7,9.9
2022-09-10 07:00:00 +0000,2022-09-10 02:00:00 -0500,6.8,8.3
2022-09-10 08:00:00 +0000,2022-09-10 03:00:00 -0500,3.1,5.7
2022-09-10 09:00:00 +0000,2022-09-10 04:00:00 -0500,4.5,5.1
2022-09-10 10:00:00 +0000,2022-09-10 05:00:00 -0500,6.6,5.8
2022-09-10 11:00:00 +0000,2022-09-10 06:00:00 -0500,5.2,5.5
2022-09-10 12:00:00 +0000,2022-09-10 07:00:00 -0500,15.8,10.6
2022-09-10 13:00:00 +0000,2022-09-10 08:00:00 -0500,5.3,7.9
2022-09-10 14:00:00 +0000,2022-09-10 09:00:00 -0500,1.2,4.5
2022-09-10 15:00:00 +0000,2022-09-10 10:00:00 -0500,7.1,5.8
2022-09-10 16:00:00 +0000,2022-09-10 11:00:00 -0500,10,7.9
2022-09-10 17:00:00 +0000,2022-09-10 12:00:00 -0500,10.6,9.2
2022-09-10 18:00:00 +0000,2022-09-10 13:00:00 -0500,14.2,11.7
2022-09-10 19:00:00 +0000,2022-09-10 14:00:00 -0500,14.6,13.1
2022-09-10 20:00:00 +0000,2022-09-10 15:00:00 -0500,6.8,9.9
2022-09-10 21:00:00 +0000,2022-09-10 16:00:00 -0500,9,9.4
2022-09-10 22:00:00 +0000,2022-09-10 17:00:00 -0500,8,8.7
2022-09-10 23:00:00 +0000,2022-09-10 18:00:00 -0500,NA,NA
2022-09-11 00:00:00 +0000,2022-09-10 19:00:00 -0500,2.7,4.7
2022-09-11 01:00:00 +0000,2022-09-10 20:00:00 -0500,0,2
2022-09-11 02:00:00 +0000,2022-09-10 21:00:00 -0500,0,0.9
2022-09-11 03:00:00 +0000,2022-09-10 22:00:00 -0500,0,0.4
2022-09-11 04:00:00 +0000,2022-09-10 23:00:00 -0500,0,0.2
2022-09-11 05:00:00 +0000,2022-09-11 00:00:00 -0500,2.2,1.2
2022-09-11 06:00:00 +0000,2022-09-11 01:00:00 -0500,3,2.1
2022-09-11 07:00:00 +0000,2022-09-11 02:00:00 -0500,4.1,3.1
2022-09-11 08:00:00 +0000,2022-09-11 03:00:00 -0500,6.4,4.7
2022-09-11 09:00:00 +0000,2022-09-11 04:00:00 -0500,3.2,3.9
2022-09-11 10:00:00 +0000,2022-09-11 05:00:00 -0500,3.2,3.5
2022-09-11 11:00:00 +0000,2022-09-11 06:00:00 -0500,4.1,3.8
2022-09-11 12:00:00 +0000,2022-09-11 07:00:00 -0500,5.3,4.5
2022-09-11 13:00:00 +0000,2022-09-11 08:00:00 -0500,6,5.2
2022-09-11 14:00:00 +0000,2022-09-11 09:00:00 -0500,7.4,6.3
2022-09-11 15:00:00 +0000,2022-09-11 10:00:00 -0500,6,6.1
2022-09-11 16:00:00 +0000,2022-09-11 11:00:00 -0500,8,7
2022-09-11 17:00:00 +0000,2022-09-11 12:00:00 -0500,2.4,4.7
2022-09-11 18:00:00 +0000,2022-09-11 13:00:00 -0500,4.4,4.5
2022-09-11 19:00:00 +0000,2022-09-11 14:00:00 -0500,5.5,5
2022-09-11 20:00:00 +0000,2022-09-11 15:00:00 -0500,3.3,4.1
2022-09-11 21:00:00 +0000,2022-09-11 16:00:00 -0500,2.1,3.1
2022-09-11 22:00:00 +0000,2022-09-11 17:00:00 -0500,6.5,4.8
2022-09-11 23:00:00 +0000,2022-09-11 18:00:00 -0500,0,2.4
2022-09-12 00:00:00 +0000,2022-09-11 19:00:00 -0500,2.4,2.4
2022-09-12 01:00:00 +0000,2022-09-11 20:00:00 -0500,4.6,3.5
2022-09-12 02:00:00 +0000,2022-09-11 21:00:00 -0500,3,3.2
2022-09-12 03:00:00 +0000,2022-09-11 22:00:00 -0500,3.1,3.1
2022-09-12 04:00:00 +0000,2022-09-11 23:00:00 -0500,5.5,4.3
2022-09-12 05:00:00 +0000,2022-09-12 00:00:00 -0500,5.2,4.7
2022-09-12 06:00:00 +0000,2022-09-12 01:00:00 -0500,2,3.3
2022-09-12 07:00:00 +0000,2022-09-12 02:00:00 -0500,4.7,4
2022-09-12 08:00:00 +0000,2022-09-12 03:00:00 -0500,2,3
2022-09-12 09:00:00 +0000,2022-09-12 04:00:00 -0500,2.4,2.7
2022-09-12 10:00:00 +0000,2022-09-12 05:00:00 -0500,3.3,3
2022-09-12 11:00:00 +0000,2022-09-12 06:00:00 -0500,3.3,3.1
2022-09-12 12:00:00 +0000,2022-09-12 07:00:00 -0500,3.5,3.3
2022-09-12 13:00:00 +0000,2022-09-12 08:00:00 -0500,5.8,4.5
2022-09-12 14:00:00 +0000,2022-09-12 09:00:00 -0500,6.3,5.4
2022-09-12 15:00:00 +0000,2022-09-12 10:00:00 -0500,7.7,6.5
2022-09-12 16:00:00 +0000,2022-09-12 11:00:00 -0500,4.4,5.4
2022-09-12 17:00:00 +0000,2022-09-12 12:00:00 -0500,3.4,4.4
2022-09-12 18:00:00 +0000,2022-09-12 13:00:00 -0500,7.2,5.8
2022-09-12 19:00:00 +0000,2022-09-12 14:00:00 -0500,3.8,4.8
2022-09-12 20:00:00 +0000,2022-09-12 15:00:00 -0500,1.7,3.2
2022-09-12 21:00:00 +0000,2022-09-12 16:00:00 -0500,5.1,4.1
2022-09-12 22:00:00 +0000,2022-09-12 17:00:00 -0500,4.7,4.4
2022-09-12 23:00:00 +0000,2022-09-12 18:00:00 -0500,5.8,5.1
2022-09-13 00:00:00 +0000,2022-09-12 19:00:00 -0500,0,2.5
2022-09-13 01:00:00 +0000,2022-09-12 20:00:00 -0500,3.8,3.1
2022-09-13 02:00:00 +0000,2022-09-12 21:00:00 -0500,4.2,3.6
2022-09-13 03:00:00 +0000,2022-09-12 22:00:00 -0500,7.9,5.7
2022-09-13 04:00:00 +0000,2022-09-12 23:00:00 -0500,1.9,3.8
2022-09-13 05:00:00 +0000,2022-09-13 00:00:00 -0500,8.9,6.3
2022-09-13 06:00:00 +0000,2022-09-13 01:00:00 -0500,3.6,4.9
2022-09-13 07:00:00 +0000,2022-09-13 02:00:00 -0500,2.9,3.9
2022-09-13 08:00:00 +0000,2022-09-13 03:00:00 -0500,3.7,3.8
2022-09-13 09:00:00 +0000,2022-09-13 04:00:00 -0500,8.3,6
2022-09-13 10:00:00 +0000,2022-09-13 05:00:00 -0500,11.1,8.5
2022-09-13 11:00:00 +0000,2022-09-13 06:00:00 -0500,6.7,7.6
2022-09-13 12:00:00 +0000,2022-09-13 07:00:00 -0500,5.2,6.4
2022-09-13 13:00:00 +0000,2022-09-13 08:00:00 -0500,4.8,5.6
2022-09-13 14:00:00 +0000,2022-09-13 09:00:00 -0500,4.7,5.1
2022-09-13 15:00:00 +0000,2022-09-13 10:00:00 -0500,0.8,2.9
2022-09-13 16:00:00 +0000,2022-09-13 11:00:00 -0500,6.5,4.7
2022-09-13 17:00:00 +0000,2022-09-13 12:00:00 -0500,8.8,6.7
2022-09-13 18:00:00 +0000,2022-09-13 13:00:00 -0500,7.4,7
2022-09-13 19:00:00 +0000,2022-09-13 14:00:00 -0500,5,6
2022-09-13 20:00:00 +0000,2022-09-13 15:00:00 -0500,2.8,4.4
2022-09-13 21:00:00 +0000,2022-09-13 16:00:00 -0500,5.6,5
2022-09-13 22:00:00 +0000,2022-09-13 17:00:00 -0500,7.4,6.2
2022-09-13 23:00:00 +0000,2022-09-13 18:00:00 -0500,8,7.1
2022-09-14 00:00:00 +0000,2022-09-13 19:00:00 -0500,2,4.5
2022-09-14 01:00:00 +0000,2022-09-13 20:00:00 -0500,8.4,6.4
2022-09-14 02:00:00 +0000,2022-09-13 21:00:00 -0500,5.1,5.7
2022-09-14 03:00:00 +0000,2022-09-13 22:00:00 -0500,1.7,3.7
2022-09-14 04:00:00 +0000,2022-09-13 23:00:00 -0500,4.6,4.1
2022-09-14 05:00:00 +0000,2022-09-14 00:00:00 -0500,14.7,9.4
2022-09-14 06:00:00 +0000,2022-09-14 01:00:00 -0500,5.8,7.6
2022-09-14 07:00:00 +0000,2022-09-14 02:00:00 -0500,0.9,4.2
2022-09-14 08:00:00 +0000,2022-09-14 03:00:00 -0500,5.2,4.7
2022-09-14 09:00:00 +0000,2022-09-14 04:00:00 -0500,6.9,5.8
2022-09-14 10:00:00 +0000,2022-09-14 05:00:00 -0500,6.5,6.1
2022-09-14 11:00:00 +0000,2022-09-14 06:00:00 -0500,5.5,5.8
2022-09-14 12:00:00 +0000,2022-09-14 07:00:00 -0500,8.8,7.3
2022-09-14 13:00:00 +0000,2022-09-14 08:00:00 -0500,5.2,6.2
2022-09-14 14:00:00 +0000,2022-09-14 09:00:00 -0500,10.2,8.2
2022-09-14 15:00:00 +0000,2022-09-14 10:00:00 -0500,9.6,8.9
2022-09-14 16:00:00 +0000,2022-09-14 11:00:00 -0500,5.4,7.1
2022-09-14 17:00:00 +0000,2022-09-14 12:00:00 -0500,5.4,6.2
2022-09-14 18:00:00 +0000,2022-09-14 13:00:00 -0500,7.1,6.6
2022-09-14 19:00:00 +0000,2022-09-14 14:00:00 -0500,9.4,8
2022-09-14 20:00:00 +0000,2022-09-14 15:00:00 -0500,8,8
2022-09-14 21:00:00 +0000,2022-09-14 16:00:00 -0500,5.4,6.7
2022-09-14 22:00:00 +0000,2022-09-14 17:00:00 -0500,8.4,7.5
2022-09-14 23:00:00 +0000,2022-09-14 18:00:00 -0500,4.6,6
2022-09-15 00:00:00 +0000,2022-09-14 19:00:00 -0500,7.9,6.9
2022-09-15 01:00:00 +0000,2022-09-14 20:00:00 -0500,7.1,7
2022-09-15 02:00:00 +0000,2022-09-14 21:00:00 -0500,12.8,9.9
2022-09-15 03:00:00 +0000,2022-09-14 22:00:00 -0500,10.3,10.1
2022-09-15 04:00:00 +0000,2022-09-14 23:00:00 -0500,7.2,8.6
2022-09-15 05:00:00 +0000,2022-09-15 00:00:00 -0500,7.6,8.1
2022-09-15 06:00:00 +0000,2022-09-15 01:00:00 -0500,3.4,5.7
2022-09-15 07:00:00 +0000,2022-09-15 02:00:00 -0500,6.4,6
2022-09-15 08:00:00 +0000,2022-09-15 03:00:00 -0500,4.2,5.1
2022-09-15 09:00:00 +0000,2022-09-15 04:00:00 -0500,5.4,5.2
2022-09-15 10:00:00 +0000,2022-09-15 05:00:00 -0500,4.1,4.6
2022-09-15 11:00:00 +0000,2022-09-15 06:00:00 -0500,6.5,5.5
2022-09-15 12:00:00 +0000,2022-09-15 07:00:00 -0500,3.9,4.7
2022-09-15 13:00:00 +0000,2022-09-15 08:00:00 -0500,5.5,5.1
2022-09-15 14:00:00 +0000,2022-09-15 09:00:00 -0500,NA,NA
2022-09-15 15:00:00 +0000,2022-09-15 10:00:00 -0500,0,1.7
2022-09-15 16:00:00 +0000,2022-09-15 11:00:00 -0500,0,0.7
2022-09-15 17:00:00 +0000,2022-09-15 12:00:00 -0500,7.6,4.3
2022-09-15 18:00:00 +0000,2022-09-15 13:00:00 -0500,9.8,7.1
2022-09-15 19:00:00 +0000,2022-09-15 14:00:00 -0500,11,9.1
2022-09-15 20:00:00 +0000,2022-09-15 15:00:00 -0500,8.9,9
2022-09-15 21:00:00 +0000,2022-09-15 16:00:00 -0500,9.6,9.3
2022-09-15 22:00:00 +0000,2022-09-15 17:00:00 -0500,16.9,13.1
2022-09-15 23:00:00 +0000,2022-09-15 18:00:00 -0500,10.5,11.8
2022-09-16 00:00:00 +0000,2022-09-15 19:00:00 -0500,16.8,14.3
2022-09-16 01:00:00 +0000,2022-09-15 20:00:00 -0500,9.8,12
2022-09-16 02:00:00 +0000,2022-09-15 21:00:00 -0500,17,14.5
2022-09-16 03:00:00 +0000,2022-09-15 22:00:00 -0500,10.8,12.6
2022-09-16 04:00:00 +0000,2022-09-15 23:00:00 -0500,9.4,11
2022-09-16 05:00:00 +0000,2022-09-16 00:00:00 -0500,7.9,9.4
2022-09-16 06:00:00 +0000,2022-09-16 01:00:00 -0500,9.4,9.4
2022-09-16 07:00:00 +0000,2022-09-16 02:00:00 -0500,9.3,9.3
2022-09-16 08:00:00 +0000,2022-09-16 03:00:00 -0500,7.2,8.2
2022-09-16 09:00:00 +0000,2022-09-16 04:00:00 -0500,2.6,5.4
2022-09-16 10:00:00 +0000,2022-09-16 05:00:00 -0500,7.5,6.4
2022-09-16 11:00:00 +0000,2022-09-16 06:00:00 -0500,6.2,6.3
2022-09-16 12:00:00 +0000,2022-09-16 07:00:00 -0500,9.2,7.7
2022-09-16 13:00:00 +0000,2022-09-16 08:00:00 -0500,6.1,6.9
2022-09-16 14:00:00 +0000,2022-09-16 09:00:00 -0500,10.6,8.7
2022-09-16 15:00:00 +0000,2022-09-16 10:00:00 -0500,8.1,8.4
2022-09-16 16:00:00 +0000,2022-09-16 11:00:00 -0500,12.9,10.6
2022-09-16 17:00:00 +0000,2022-09-16 12:00:00 -0500,11.2,10.9
2022-09-16 18:00:00 +0000,2022-09-16 13:00:00 -0500,9.6,10.2
2022-09-16 19:00:00 +0000,2022-09-16 14:00:00 -0500,2.8,6.5
2022-09-16 20:00:00 +0000,2022-09-16 15:00:00 -0500,8.1,7.3
2022-09-16 21:00:00 +0000,2022-09-16 16:00:00 -0500,14,10.6
2022-09-16 22:00:00 +0000,2022-09-16 17:00:00 -0500,0,5.3
2022-09-16 23:00:00 +0000,2022-09-16 18:00:00 -0500,22.9,14.1
2022-09-17 00:00:00 +0000,2022-09-16 19:00:00 -0500,13.7,13.9
2022-09-17 01:00:00 +0000,2022-09-16 20:00:00 -0500,12,12.9
2022-09-17 02:00:00 +0000,2022-09-16 21:00:00 -0500,5.4,9.1
2022-09-17 03:00:00 +0000,2022-09-16 22:00:00 -0500,9,9
2022-09-17 04:00:00 +0000,2022-09-16 23:00:00 -0500,6.7,7.8
2022-09-17 05:00:00 +0000,2022-09-17 00:00:00 -0500,9.8,8.8
2022-09-17 06:00:00 +0000,2022-09-17 01:00:00 -0500,7.6,8.2
2022-09-17 07:00:00 +0000,2022-09-17 02:00:00 -0500,8.4,8.3
2022-09-17 08:00:00 +0000,2022-09-17 03:00:00 -0500,6.7,7.5
2022-09-17 09:00:00 +0000,2022-09-17 04:00:00 -0500,7.5,7.5
2022-09-17 10:00:00 +0000,2022-09-17 05:00:00 -0500,10.7,9.1
2022-09-17 11:00:00 +0000,2022-09-17 06:00:00 -0500,10.1,9.5
2022-09-17 12:00:00 +0000,2022-09-17 07:00:00 -0500,10,9.7
2022-09-17 13:00:00 +0000,2022-09-17 08:00:00 -0500,9.1,9.4
2022-09-17 14:00:00 +0000,2022-09-17 09:00:00 -0500,10.2,9.6
2022-09-17 15:00:00 +0000,2022-09-17 10:00:00 -0500,10.4,9.9
2022-09-17 16:00:00 +0000,2022-09-17 11:00:00 -0500,18.4,14.2
2022-09-17 17:00:00 +0000,2022-09-17 12:00:00 -0500,8.2,11.2
2022-09-17 18:00:00 +0000,2022-09-17 13:00:00 -0500,0,5.6
2022-09-17 19:00:00 +0000,2022-09-17 14:00:00 -0500,18.4,12
2022-09-17 20:00:00 +0000,2022-09-17 15:00:00 -0500,13.5,12.7
2022-09-17 21:00:00 +0000,2022-09-17 16:00:00 -0500,0.4,6.5
2022-09-17 22:00:00 +0000,2022-09-17 17:00:00 -0500,0,3.2
2022-09-17 23:00:00 +0000,2022-09-17 18:00:00 -0500,5.4,4.3
2022-09-18 00:00:00 +0000,2022-09-17 19:00:00 -0500,36.5,20.4
2022-09-18 01:00:00 +0000,2022-09-17 20:00:00 -0500,22.2,21.3
2022-09-18 02:00:00 +0000,2022-09-17 21:00:00 -0500,6,13.6
2022-09-18 03:00:00 +0000,2022-09-17 22:00:00 -0500,7.6,10.6
2022-09-18 04:00:00 +0000,2022-09-17 23:00:00 -0500,3.2,6.9
2022-09-18 05:00:00 +0000,2022-09-18 00:00:00 -0500,9.4,8.1
2022-09-18 06:00:00 +0000,2022-09-18 01:00:00 -0500,8.8,8.4
2022-09-18 07:00:00 +0000,2022-09-18 02:00:00 -0500,7.4,7.9
2022-09-18 08:00:00 +0000,2022-09-18 03:00:00 -0500,3.2,5.5
2022-09-18 09:00:00 +0000,2022-09-18 04:00:00 -0500,0.8,3.1
2022-09-18 10:00:00 +0000,2022-09-18 05:00:00 -0500,0,1.5
2022-09-18 11:00:00 +0000,2022-09-18 06:00:00 -0500,0,0.7
2022-09-18 12:00:00 +0000,2022-09-18 07:00:00 -0500,3.5,2.1
2022-09-18 13:00:00 +0000,2022-09-18 08:00:00 -0500,0.9,1.5
2022-09-18 14:00:00 +0000,2022-09-18 09:00:00 -0500,7.6,4.5
2022-09-18 15:00:00 +0000,2022-09-18 10:00:00 -0500,6.7,5.6
2022-09-18 16:00:00 +0000,2022-09-18 11:00:00 -0500,NA,NA
2022-09-18 17:00:00 +0000,2022-09-18 12:00:00 -0500,9.7,8.3
2022-09-18 18:00:00 +0000,2022-09-18 13:00:00 -0500,14.6,11.9
2022-09-18 19:00:00 +0000,2022-09-18 14:00:00 -0500,17.5,14.8
2022-09-18 20:00:00 +0000,2022-09-18 15:00:00 -0500,0,7.2
2022-09-18 21:00:00 +0000,2022-09-18 16:00:00 -0500,9.5,8.3
2022-09-18 22:00:00 +0000,2022-09-18 17:00:00 -0500,11,9.6
2022-09-18 23:00:00 +0000,2022-09-18 18:00:00 -0500,3.5,6.5
2022-09-19 00:00:00 +0000,2022-09-18 19:00:00 -0500,8.2,7.3
2022-09-19 01:00:00 +0000,2022-09-18 20:00:00 -0500,3.8,5.5
2022-09-19 02:00:00 +0000,2022-09-18 21:00:00 -0500,4.8,5.1
2022-09-19 03:00:00 +0000,2022-09-18 22:00:00 -0500,3.8,4.4
2022-09-19 04:00:00 +0000,2022-09-18 23:00:00 -0500,4,4.2
2022-09-19 05:00:00 +0000,2022-09-19 00:00:00 -0500,3.7,3.9
2022-09-19 06:00:00 +0000,2022-09-19 01:00:00 -0500,5.9,4.9
2022-09-19 07:00:00 +0000,2022-09-19 02:00:00 -0500,5,4.9
2022-09-19 08:00:00 +0000,2022-09-19 03:00:00 -0500,3.6,4.2
2022-09-19 09:00:00 +0000,2022-09-19 04:00:00 -0500,4.3,4.2
2022-09-19 10:00:00 +0000,2022-09-19 05:00:00 -0500,3.7,3.9
2022-09-19 11:00:00 +0000,2022-09-19 06:00:00 -0500,3.3,3.6
2022-09-19 12:00:00 +0000,2022-09-19 07:00:00 -0500,5.1,4.3
2022-09-19 13:00:00 +0000,2022-09-19 08:00:00 -0500,5.4,4.7
2022-09-19 14:00:00 +0000,2022-09-19 09:00:00 -0500,4.9,4.8
2022-09-19 15:00:00 +0000,2022-09-19 10:00:00 -0500,NA,NA
